EDT,Max TemperatureF,Mean TemperatureF,Min TemperatureF,Max Dew PointF,MeanDew PointF,Min DewpointF,Max Humidity, Mean Humidity, Min Humidity, Max Sea Level PressureIn, Mean Sea Level PressureIn, Min Sea Level PressureIn, Max VisibilityMiles, Mean VisibilityMiles, Min VisibilityMiles, Max Wind SpeedMPH, Mean Wind SpeedMPH, Max Gust SpeedMPH,PrecipitationIn, CloudCover, Events, WindDirDegrees
2013-5-1,63,56,48,48,46,40,93,68,43,30.45,30.38,30.28,10,10,10,22,11,26,0.00,3,,56
2013-5-2,65,55,44,50,46,40,93,68,43,30.44,30.40,30.34,10,10,8,17,7,21,0.00,5,,50
2013-5-3,57,51,44,45,41,38,92,70,47,30.42,30.37,30.33,10,10,2,24,12,33,0.00,3,,72
2013-5-4,64,55,46,45,42,38,86,66,46,30.34,30.28,30.23,10,10,9,20,10,28,0.00,4,,71
2013-5-5,58,52,45,45,42,39,86,74,61,30.25,30.22,30.19,10,10,10,22,11,28,0.00,6,,59
2013-5-6,58,53,47,54,51,45,100,93,86,30.18,30.15,30.10,10,4,0,18,10,24,T,8,Fog-Rain,62
2013-5-7,62,58,54,58,56,53,100,92,84,30.09,30.03,29.97,10,6,0,15,9,22,0.24,8,Fog-Rain,71
2013-5-8,73,65,56,58,56,52,100,75,49,30.01,29.99,29.95,10,6,0,6,5,8,0.19,6,Fog-Rain,161
2013-5-9,75,67,58,57,56,52,93,70,46,30.00,29.95,29.92,10,8,5,14,5,20,0.07,5,Rain,229
2013-5-10,85,70,55,61,55,50,93,62,31,30.03,29.99,29.91,10,6,0,14,5,18,0.00,0,Fog,202
2013-5-11,81,73,64,65,62,58,93,72,51,29.94,29.82,29.73,10,8,2,21,8,26,0.47,4,Rain,204
2013-5-12,68,57,46,61,45,29,93,60,27,30.01,29.83,29.73,10,10,8,17,5,29,0.12,4,Rain,300
2013-5-13,63,51,39,41,31,23,86,56,25,30.14,30.07,30.03,10,10,4,21,6,29,0.00,1,,288
2013-5-14,64,52,40,45,32,26,70,48,25,30.20,30.15,30.10,10,10,10,15,4,21,0.03,1,Rain,294
2013-5-15,81,67,52,61,54,46,83,64,45,30.11,29.90,29.72,10,10,10,21,10,28,T,3,Rain,195
2013-5-16,87,77,67,61,59,56,73,55,37,29.88,29.81,29.74,10,10,10,17,6,26,0.00,1,,262
2013-5-17,79,68,56,58,50,45,93,63,33,30.19,30.07,29.90,10,10,8,13,5,15,0.00,1,,78
2013-5-18,71,65,59,61,55,51,93,73,53,30.27,30.24,30.19,10,8,2,14,8,18,0.41,8,Rain,125
2013-5-19,76,68,60,66,62,57,97,85,73,30.22,30.18,30.12,10,7,2,16,7,21,0.13,8,Rain,146
2013-5-20,83,75,66,68,65,64,93,74,55,30.15,30.09,30.01,10,8,3,16,9,22,0.00,5,,205
2013-5-21,83,76,68,68,66,65,93,76,58,30.03,29.98,29.91,10,10,9,15,8,20,0.00,4,,219
2013-5-22,83,77,70,70,68,66,90,76,62,29.97,29.93,29.89,10,9,8,20,11,24,0.00,3,,214
2013-5-23,80,75,69,70,67,66,90,79,67,29.95,29.88,29.79,10,9,2,17,11,24,0.24,6,Rain,192
2013-5-24,69,60,50,66,56,37,93,76,59,30.07,29.85,29.74,10,9,2,20,7,30,0.26,7,Rain,310
2013-5-25,65,57,48,40,36,34,66,49,31,30.12,30.07,30.05,10,10,10,18,9,30,0.00,2,,302
2013-5-26,70,58,45,45,38,34,71,50,28,30.21,30.15,30.12,10,10,10,17,6,24,0.00,0,,287
2013-5-27,75,61,47,52,45,40,86,57,27,30.28,30.23,30.19,10,10,10,12,3,15,0.00,1,,266
2013-5-28,81,71,60,64,59,53,87,71,54,30.23,30.18,30.12,10,10,9,21,7,24,0.05,4,Rain,191
2013-5-29,88,77,66,67,64,62,87,65,43,30.14,30.12,30.10,10,10,10,16,9,22,0.00,0,,213
2013-5-30,89,80,71,68,66,63,79,63,46,30.20,30.16,30.14,10,10,8,15,8,18,0.00,0,,222
2013-5-31,92,80,67,66,64,57,93,63,32,30.19,30.13,30.07,10,10,7,21,9,26,0.00,0,,211